This is the latest recevied weather packets stored in our database for station/object K9NZF-1. If no packets are shown the sender has not sent any weather packets the latest 1 day(s).
| Time | Temp. | Humidity | Pressure | Rain* | Wind** | Luminosity | Snow |
|---|---|---|---|---|---|---|---|
| 1778014882 | 11.11° C | 92% | 1006.9 hPa | 4.06 mm | - | 33 W/m² | - |
| 1778014212 | 11.11° C | 92% | 1006.9 hPa | 3.81 mm | - | 54 W/m² | - |
| 1778014152 | 11.11° C | 92% | 1006.9 hPa | 4.06 mm | - | 46 W/m² | - |
| 1778014092 | 11.11° C | 92% | 1007 hPa | 4.06 mm | - | 39 W/m² | - |
| 1778013967 | 11.11° C | 92% | 1007 hPa | 3.81 mm | - | 21 W/m² | - |
| 1778013847 | 11.11° C | 92% | 1007 hPa | 4.06 mm | - | 32 W/m² | - |
| 1778013486 | 11.67° C | 92% | 1006.9 hPa | 3.56 mm | - | 40 W/m² | - |
| 1778013426 | 11.67° C | 92% | 1007 hPa | 3.3 mm | - | 42 W/m² | - |
| 1778013119 | 11.67° C | 92% | 1006.8 hPa | 3.81 mm | - | 18 W/m² | - |
| 1778012695 | 11.67° C | 92% | 1006.8 hPa | 3.3 mm | - | 46 W/m² | - |
| 1778012265 | 11.67° C | 92% | 1006.8 hPa | 3.05 mm | - | 18 W/m² | - |
| 1778012202 | 11.67° C | 92% | 1006.7 hPa | 3.05 mm | - | 33 W/m² | - |
| 1778012020 | 12.22° C | 92% | 1006.6 hPa | 2.79 mm | - | 51 W/m² | - |
| 1778011955 | 12.22° C | 92% | 1006.6 hPa | 2.79 mm | - | 49 W/m² | - |
| 1778011710 | 12.22° C | 92% | 1006.6 hPa | 2.79 mm | - | 58 W/m² | - |
| 1778011650 | 12.22° C | 92% | 1006.6 hPa | 2.54 mm | - | 63 W/m² | - |
| 1778011529 | 12.22° C | 92% | 1006.6 hPa | 2.54 mm | - | 58 W/m² | - |
| 1778011462 | 11.67° C | 92% | 1006.6 hPa | 2.79 mm | - | 58 W/m² | - |
| 1778011097 | 11.67° C | 92% | 1006.7 hPa | 2.79 mm | - | 69 W/m² | - |
| 1778011038 | 11.67° C | 92% | 1006.8 hPa | 2.79 mm | - | 65 W/m² | - |
| 1778010852 | 11.67° C | 92% | 1006.9 hPa | 2.79 mm | - | 54 W/m² | - |
| 1778010791 | 11.67° C | 92% | 1006.9 hPa | 2.79 mm | - | 47 W/m² | - |
| 1778010673 | 11.67° C | 92% | 1006.8 hPa | 3.05 mm | - | 63 W/m² | - |
| 1778010552 | 11.67° C | 92% | 1006.9 hPa | 3.3 mm | - | 86 W/m² | - |
| 1778010250 | 12.22° C | 92% | 1006.9 hPa | 3.56 mm | - | 84 W/m² | - |
* Rain latest hour (hover to see other rain measurements)
** Current wind speed in m/s (hover to see current wind gust speed)